Wind_Speed
55 57 58 59 60 60 61 60 59 58 57 55 54 53 51 49 47 44 42 40 38 36 35 34 32 31 29 27 26 25 24 23 22 21 20 19 19 19 19 19 20 21 21 20 19 18 18 17 18 17 17 17 17 17 17 18 17 17 15 14 13 12 11 10 10 11 12 13 14 15 17 19 20 22 23 24 26 27 28 29 29 30 31 32 33 34 35 36
56 57 57 57 57 56 55 54 52 50 49 47 45 43 40 37 35 33 32 31 31 30 30 29 27 25 23 22 21 19 18 17 16 15 15 15 16 18 19 20 20 20 20 19 20 20 20 20 20 20 20 20 20 21 21 20 19 18 16 14 13 12 11 11 11 12 12 13 14 16 17 20 21 22 24 25 26 28 28 29 30 31 32 33 34 36 37 37
52 51 50 49 48 47 45 43 41 39 37 35 33 30 29 27 26 26 26 27 27 26 25 24 23 21 19 17 16 15 14 14 16 17 18 19 20 21 22 22 22 23 23 23 23 23 23 23 23 24 24 24 24 23 22 21 19 17 16 14 13 12 12 12 12 12 13 14 15 17 19 20 22 23 24 26 27 28 29 30 31 32 33 34 36 37 38 39
42 40 39 38 36 34 32 31 29 27 26 24 23 22 21 21 21 22 23 23 22 21 20 19 17 16 15 14 15 16 18 19 21 22 23 23 24 25 25 26 27 27 27 27 27 27 27 27 28 28 27 27 25 24 22 20 19 17 16 14 13 12 12 12 12 12 14 15 16 18 20 21 22 23 25 27 28 29 30 32 33 34 35 36 37 38 40 41
31 29 28 26 24 23 21 20 19 18 17 17 17 16 16 17 18 18 18 17 17 16 15 15 15 16 17 19 20 22 23 24 25 26 27 28 29 30 30 30 30 30 30 30 31 31 31 31 30 29 27 26 24 22 21 20 18 17 15 14 13 12 12 12 12 13 15 16 17 19 21 22 23 24 26 28 29 30 32 33 35 36 37 38 39 40 41 42
20 19 18 17 15 14 14 13 13 13 13 13 13 13 14 14 15 15 14 15 15 16 17 18 20 22 23 24 25 26 26 28 29 31 32 33 34 34 34 34 34 34 35 35 35 34 33 32 30 28 26 24 23 21 20 19 17 16 14 14 13 12 11 11 12 14 15 16 18 19 21 22 24 25 27 29 30 32 33 35 36 37 38 40 40 41 42 44
12 12 11 11 11 11 11 11 12 12 12 12 13 13 14 15 16 17 17 18 19 21 22 24 25 27 28 29 29 30 31 32 34 36 37 38 39 39 39 39 39 39 38 37 35 34 32 30 28 26 24 23 21 20 19 17 16 14 14 13 12 11 11 11 12 14 15 16 18 20 21 23 25 26 28 30 31 33 35 37 38 39 41 42 43 43 44 45
9 10 11 11 12 12 12 13 12 12 13 13 14 15 16 17 19 20 22 23 23 25 27 29 30 31 33 34 34 36 37 39 40 42 44 44 44 44 43 42 41 39 38 36 34 32 30 28 26 24 22 21 20 18 17 15 14 13 13 12 12 11 11 12 13 14 15 17 19 21 22 24 26 28 29 31 33 35 37 38 40 41 43 44 44 45 46 47
11 12 13 14 14 14 15 15 15 15 16 16 17 18 19 21 23 24 25 26 27 30 33 34 36 38 39 41 42 43 44 46 47 48 48 47 46 45 43 41 40 38 36 34 31 29 27 25 24 22 20 18 17 16 15 14 13 12 12 12 11 11 12 13 14 15 16 18 21 22 24 25 27 29 31 33 35 37 39 40 42 43 44 45 46 48 49 50
16 16 17 18 19 19 20 21 21 23 24 25 26 28 29 30 31 32 32 32 34 38 41 43 45 47 48 49 50 50 50 50 50 49 48 46 45 43 41 39 37 35 33 31 29 27 25 23 21 19 17 16 15 14 14 13 12 11 11 11 11 12 13 14 15 16 18 20 22 24 26 27 29 31 33 35 37 39 41 42 44 45 46 47 48 50 51 52
22 23 23 24 25 26 28 29 31 33 34 36 37 38 39 40 41 41 41 42 45 49 51 53 54 54 54 54 54 52 51 50 49 48 46 44 42 40 38 36 34 32 30 29 26 24 22 21 19 17 16 15 13 13 12 11 10 9 10 11 12 13 14 15 16 18 20 22 24 26 27 29 31 33 35 37 38 40 42 44 46 47 49 50 51 52 53 55
28 29 30 32 33 35 38 39 41 42 44 45 46 48 49 50 50 51 52 53 55 57 58 58 58 57 55 54 53 51 50 49 47 45 43 41 39 37 35 33 31 29 28 26 24 22 20 19 18 16 14 12 10 9 9 8 8 9 10 12 13 14 15 16 18 20 22 24 26 27 29 30 32 34 36 38 40 42 43 45 47 49 51 52 53 54 55 57
34 36 38 40 42 44 46 47 48 50 52 53 54 55 56 57 57 58 58 58 59 59 59 59 58 57 55 53 52 50 48 46 44 42 40 38 36 34 32 30 28 27 25 23 22 20 18 16 15 13 11 9 7 6 6 7 7 9 11 13 15 16 17 18 20 22 24 26 27 29 30 32 34 36 38 40 41 43 45 48 50 52 53 55 56 57 58 59
42 44 46 48 49 50 51 53 54 56 58 58 59 60 60 60 60 60 59 59 59 59 59 58 56 55 53 50 49 47 45 42 40 38 37 35 33 31 30 28 26 24 22 20 18 17 15 13 11 10 8 7 6 6 7 7 8 10 12 14 16 18 19 21 22 24 25 27 29 30 32 34 36 38 40 41 43 45 47 50 52 54 55 57 58 59 60 61
49 51 52 53 53 54 56 57 59 60 60 60 60 60 60 60 59 59 59 58 58 57 56 55 53 52 50 47 46 44 41 39 37 35 34 32 30 28 27 25 24 22 20 18 16 14 12 11 9 8 7 6 7 9 10 10 10 12 14 16 18 20 22 23 24 26 27 28 30 32 34 36 38 40 42 43 45 47 49 51 54 55 57 58 60 61 63 64
53 54 55 56 56 57 59 60 60 60 60 59 59 58 59 58 58 57 57 57 56 55 53 52 50 48 46 44 42 41 38 36 34 32 31 29 27 25 23 22 20 18 16 14 12 11 9 8 7 7 5 5 8 11 13 12 13 14 16 18 20 22 24 26 27 28 29 30 32 34 36 38 40 42 44 46 47 49 51 53 55 57 59 61 62 63 65 66
56 57 57 58 58 58 59 59 58 57 57 56 56 56 56 56 56 55 54 54 53 51 49 48 47 45 42 41 40 37 35 33 31 29 27 26 24 22 20 17 15 13 12 10 8 7 6 5 5 5 5 7 11 14 15 14 14 16 18 21 23 25 26 28 29 30 31 32 34 36 38 41 42 44 46 48 50 51 53 55 57 59 61 63 64 66 67 68
58 58 58 58 58 57 56 56 55 54 53 53 53 54 54 54 53 52 51 50 49 48 45 44 44 42 39 37 37 34 32 30 28 26 24 22 20 18 16 14 11 10 8 6 5 4 4 5 5 6 8 11 14 16 17 16 17 19 21 24 26 27 29 31 32 33 34 35 37 38 41 43 45 46 48 50 52 53 55 57 59 60 62 64 65 67 69 70
58 59 59 58 57 56 54 53 52 51 50 49 49 49 50 50 50 49 48 46 46 44 42 41 41 39 36 35 33 31 28 26 24 22 20 18 16 14 12 11 9 7 6 5 4 4 5 6 8 10 12 14 16 18 19 20 21 23 25 27 29 30 32 33 34 35 36 38 40 41 42 45 48 48 49 51 53 55 57 58 60 62 64 65 66 67 69 71
56 57 58 57 56 54 53 51 49 48 47 46 45 44 44 45 46 45 44 43 42 40 38 37 37 35 33 31 30 28 25 23 20 18 17 15 13 11 10 8 7 5 4 4 5 6 7 9 11 13 15 17 19 20 22 23 25 26 28 30 32 33 35 35 36 37 39 41 43 45 45 46 50 52 52 53 55 57 58 60 61 64 65 67 69 69 70 72
54 55 55 55 54 52 51 49 47 45 44 43 42 41 39 40 41 40 40 40 39 37 35 33 31 29 28 26 24 23 21 19 17 16 14 12 10 8 7 7 6 4 4 6 7 9 11 12 14 16 18 20 22 24 25 26 28 30 32 33 35 36 37 38 39 40 41 43 45 48 49 48 49 54 56 56 57 58 60 62 63 65 67 69 71 72 73 74
52 52 52 51 51 49 48 46 45 43 41 40 40 38 36 36 36 34 35 37 35 33 31 28 25 23 22 20 18 17 16 16 14 12 11 9 7 5 4 4 4 5 7 9 11 13 14 16 17 19 21 23 25 26 28 30 31 33 35 36 37 39 40 41 42 43 44 45 46 49 53 52 50 53 58 59 60 61 62 64 65 66 68 70 72 73 75 76
50 49 48 48 47 46 44 43 42 40 39 38 36 35 33 32 32 28 27 31 31 28 26 23 20 18 16 15 14 13 12 11 10 8 7 5 4 3 4 5 6 8 11 14 15 16 18 19 20 22 24 26 28 29 31 33 34 36 38 39 40 41 42 43 44 45 46 47 48 49 54 58 55 54 58 62 63 64 65 66 67 68 69 71 73 75 76 78
47 46 45 43 42 41 40 39 38 37 36 35 33 31 29 28 27 24 22 23 24 23 21 18 16 14 12 11 10 8 7 6 6 5 3 3 4 5 6 9 11 13 15 17 19 20 21 23 24 26 28 29 31 33 34 36 38 40 41 42 43 44 45 45 46 48 49 50 51 50 51 59 62 57 58 62 64 66 67 68 70 70 71 72 74 76 78 79
43 42 41 40 38 37 36 35 34 33 32 32 30 27 26 25 23 21 19 18 18 17 15 14 12 10 8 7 5 4 2 2 2 2 3 5 6 8 10 13 16 18 19 21 23 24 25 27 29 30 32 34 35 37 38 39 41 43 44 45 46 47 47 48 49 50 51 53 54 54 51 56 64 62 59 62 65 67 69 70 71 73 73 74 75 77 79 80
40 39 38 37 35 34 33 32 31 30 29 28 26 24 23 22 20 19 17 15 14 13 11 9 8 7 5 3 2 0 2 3 5 6 7 9 11 13 15 18 20 21 23 25 27 29 30 32 33 34 36 37 39 40 42 43 44 45 47 47 49 50 50 51 52 52 54 55 57 59 56 55 63 66 63 64 68 69 71 71 73 75 75 76 77 78 80 81
36 35 34 33 32 31 30 29 28 27 25 24 23 21 20 19 18 17 15 13 11 9 7 6 5 3 1 0 2 4 5 7 8 10 12 14 16 18 21 23 24 26 28 30 32 33 34 35 36 37 39 40 42 43 45 46 47 48 49 50 51 52 53 53 54 54 56 58 59 62 63 60 63 68 66 65 69 71 72 74 74 77 79 79 80 80 80 82
33 32 31 30 29 28 27 26 25 24 22 20 19 19 18 16 14 13 11 9 7 5 3 2 1 0 2 4 5 7 9 10 12 14 16 18 20 23 25 27 29 31 32 33 35 36 37 38 39 40 42 43 45 46 48 49 49 51 51 52 54 55 55 56 57 57 58 60 62 63 66 65 66 71 70 67 70 72 72 73 75 77 81 83 83 82 82 83
29 29 28 27 26 25 24 23 21 20 19 17 16 15 14 12 10 9 7 4 2 0 2 3 4 5 6 8 9 11 13 15 16 18 20 22 24 26 28 30 32 33 35 36 37 38 40 41 42 43 45 46 48 49 50 51 52 53 54 55 56 57 58 59 60 61 60 62 64 65 68 69 69 75 75 72 71 73 73 74 75 77 82 85 84 84 84 85
25 24 24 23 22 21 21 20 18 17 15 14 13 12 11 9 7 6 4 3 3 3 5 6 8 9 11 12 14 16 17 19 20 22 24 26 28 30 31 33 34 36 37 39 40 41 43 44 45 46 48 49 50 52 53 54 55 56 56 57 58 59 60 62 63 64 63 64 66 67 70 71 73 77 79 78 76 76 75 75 76 78 82 86 86 85 86 87
21 20 20 19 18 18 17 16 15 14 13 12 11 10 8 7 6 6 5 5 6 8 9 11 12 13 15 17 19 20 22 23 25 26 28 30 32 33 35 37 38 39 40 42 43 44 46 47 48 50 51 52 54 55 56 57 58 59 60 60 61 62 63 64 66 66 66 67 67 68 70 72 75 80 82 82 82 81 79 78 78 79 82 86 88 87 87 88
19 18 17 16 15 14 13 13 12 11 10 10 9 8 8 7 7 7 8 9 10 12 13 15 16 18 19 21 22 24 25 27 28 30 31 33 34 36 38 40 41 42 44 45 46 48 49 50 51 53 55 56 57 58 59 61 61 62 64 64 64 65 65 66 67 68 68 69 69 70 71 72 76 82 85 86 87 85 82 80 79 79 81 86 89 89 89 89
17 16 15 14 13 12 11 10 9 9 8 8 8 8 8 8 9 10 11 12 14 15 17 19 20 22 23 24 26 27 29 30 31 33 34 36 38 39 41 43 45 45 47 48 49 51 53 54 55 56 58 59 60 61 62 63 64 65 67 68 69 69 69 69 70 70 70 70 71 72 73 72 75 83 88 88 89 88 84 82 81 80 81 84 88 90 90 89
16 15 13 13 12 11 10 10 9 9 10 10 10 11 11 12 13 14 15 16 17 19 20 22 24 25 26 28 29 31 32 34 35 37 38 40 41 43 45 46 48 49 50 51 52 53 56 58 58 59 60 61 63 64 65 66 67 68 69 71 72 73 74 74 74 75 74 72 72 73 75 74 76 83 89 90 91 89 85 83 83 82 82 84 87 89 90 90
15 14 13 12 11 11 11 11 11 11 12 13 14 14 15 16 17 18 19 20 21 23 24 26 27 29 30 32 33 34 36 37 39 41 42 44 46 47 48 49 51 52 53 54 55 55 58 61 62 62 63 64 66 67 68 69 70 71 72 73 75 76 78 79 79 79 80 77 74 75 76 75 76 82 89 93 94 89 85 84 84 83 84 85 87 89 90 91
14 13 12 12 12 12 12 12 13 14 14 15 17 18 19 20 21 23 24 24 26 27 28 30 31 32 34 36 37 39 40 41 43 44 46 48 49 50 52 53 54 55 56 57 58 58 59 63 66 66 66 67 69 70 72 73 74 74 76 77 78 79 81 83 83 83 84 83 80 78 78 77 77 81 86 92 94 90 87 86 84 85 87 87 87 88 89 91
14 13 12 12 12 13 14 14 15 16 17 18 19 21 22 24 25 27 28 28 30 31 32 34 35 36 38 40 41 43 44 45 47 48 50 52 53 54 55 56 57 58 59 60 61 62 62 64 68 70 70 71 72 74 75 77 78 79 80 81 82 83 85 86 87 87 88 87 84 82 81 78 79 82 84 87 91 91 91 90 88 89 91 90 90 90 91 93
14 13 13 13 13 14 15 16 17 18 19 21 22 23 25 26 28 30 31 32 33 34 36 37 39 40 42 43 45 46 47 49 50 52 53 55 56 57 58 59 61 62 63 64 65 66 66 65 68 71 73 74 75 77 78 80 81 83 84 86 87 88 89 89 90 91 92 92 90 87 83 79 80 85 86 85 87 91 93 92 93 94 95 94 94 93 94 96
14 14 14 15 16 17 18 19 20 21 22 23 25 26 28 29 31 32 33 35 36 37 39 41 42 44 45 46 48 49 50 52 53 54 56 57 59 61 62 63 64 66 67 68 68 69 70 69 69 72 74 76 77 79 80 82 84 85 87 89 91 92 92 92 93 94 95 96 94 91 86 81 82 87 88 87 89 91 92 92 93 96 97 97 98 97 98 100
15 16 16 17 18 19 21 22 23 24 25 26 27 29 30 32 33 34 36 37 39 40 42 43 45 46 47 49 50 52 53 54 56 57 59 60 62 64 66 67 68 69 70 71 72 72 73 73 72 73 76 78 79 81 82 84 86 87 90 92 93 94 95 95 93 93 95 96 96 96 92 86 86 90 91 92 92 92 92 93 93 96 98 100 101 102 102 103
18 19 19 20 21 22 23 24 26 27 27 29 30 31 32 34 35 36 38 39 40 42 43 45 46 47 49 50 52 53 55 57 59 60 62 64 65 67 69 70 71 72 73 74 75 76 76 76 75 75 77 80 82 83 85 85 87 89 91 93 95 96 97 96 95 93 95 97 98 99 96 91 91 92 93 94 94 93 94 96 96 98 100 101 103 104 105 105
20 21 21 22 23 24 25 26 27 28 29 30 31 32 34 35 36 37 39 40 42 43 45 46 48 49 51 52 54 56 58 60 62 64 65 67 68 70 72 73 74 75 76 77 78 79 79 79 78 78 79 82 83 85 86 86 87 89 92 94 96 97 98 98 98 97 97 99 100 101 98 95 95 96 96 98 98 97 98 100 101 101 102 103 104 105 106 107
21 22 23 24 25 26 27 28 29 30 31 32 33 34 36 37 38 40 41 43 44 46 47 49 51 52 54 55 57 59 61 63 65 67 69 70 72 73 75 76 77 78 79 80 81 82 82 82 81 80 81 82 85 86 87 87 88 90 93 97 99 100 99 99 99 99 99 99 100 101 99 97 98 100 101 102 102 101 102 103 104 104 104 105 105 106 106 107
22 23 24 26 27 28 29 30 31 33 34 35 37 38 39 41 42 44 45 47 48 49 51 53 54 56 57 59 60 62 64 66 68 70 72 73 75 77 78 79 81 82 82 83 83 84 85 86 85 84 82 82 84 85 86 88 89 91 94 98 100 101 100 99 99 98 98 99 100 102 102 101 102 104 105 106 105 104 104 105 106 106 106 106 105 105 105 105
25 26 27 28 29 30 31 33 34 35 37 38 40 41 43 44 46 47 49 51 52 53 54 56 58 59 61 62 63 65 67 69 70 72 74 76 78 80 81 82 84 85 86 86 87 87 88 89 89 89 89 89 88 88 88 88 89 90 93 97 100 101 102 102 102 101 102 102 102 105 106 105 106 107 107 107 105 104 103 103 104 105 106 105 104 104 103 103
28 28 30 31 32 33 34 36 37 38 40 41 43 44 46 47 49 50 52 53 55 56 57 59 61 62 64 65 67 68 70 72 74 75 77 79 80 82 84 85 86 87 88 89 90 90 91 92 93 94 95 96 96 95 95 94 93 93 96 100 102 104 106 107 106 106 106 105 104 105 106 106 105 106 105 103 102 100 99 100 100 102 102 102 101 101 101 101
30 31 32 33 35 36 37 39 40 41 43 44 45 47 48 49 51 53 54 56 57 58 60 61 63 64 66 68 69 71 73 75 77 78 80 82 83 85 86 88 89 90 91 92 93 94 94 95 95 96 97 99 99 99 100 100 98 98 100 102 104 105 106 106 106 107 107 106 104 104 104 103 103 103 102 100 98 96 96 97 98 99 98 97 96 97 97 98
32 33 34 35 37 38 39 41 42 43 45 46 47 49 50 51 53 55 56 58 59 61 62 64 65 67 68 70 72 73 75 77 79 81 82 84 85 87 88 90 91 92 94 95 96 96 96 97 97 97 98 101 102 102 102 102 101 100 101 103 103 102 102 102 102 102 103 103 102 102 101 100 99 99 99 97 95 94 94 96 98 97 95 94 93 93 94 94
33 34 35 37 38 40 41 42 44 45 46 48 49 50 52 53 55 57 58 60 62 64 65 66 68 70 71 73 74 75 77 78 79 81 83 84 86 88 90 91 92 94 95 96 97 98 98 99 100 100 102 104 105 105 104 103 100 99 100 101 100 99 98 98 97 97 98 99 100 100 99 97 95 96 96 94 92 91 92 94 96 96 94 92 91 91 92 92
35 36 37 39 40 41 43 44 46 47 48 50 51 53 54 56 57 59 61 63 64 66 68 69 70 71 73 74 75 77 78 80 81 82 84 85 87 88 90 91 93 94 96 97 98 100 101 101 102 103 103 104 105 105 104 102 100 98 98 98 97 95 95 96 95 95 95 96 96 96 95 92 91 91 90 89 87 85 87 90 93 92 90 89 89 89 89 89
37 38 39 40 42 43 44 46 48 49 51 52 54 56 57 58 60 61 63 64 66 67 69 70 71 72 74 75 76 78 80 82 83 84 86 87 88 90 91 93 95 97 98 100 101 101 102 102 102 101 100 101 102 103 102 101 99 98 97 95 93 92 92 93 93 93 93 94 93 92 89 87 86 85 83 81 80 79 81 85 88 87 85 84 85 85 85 86
39 40 41 42 44 45 47 49 50 52 53 55 56 57 59 60 61 62 63 65 66 68 69 70 72 73 74 75 77 79 81 83 85 87 88 90 92 93 95 97 98 100 101 101 101 101 101 100 99 98 97 96 98 99 101 101 100 98 96 94 91 89 89 88 88 89 91 92 92 89 87 85 84 82 80 77 75 75 77 80 82 82 81 80 81 81 82 83
Wind_Direction
271 271 270 269 269 268 268 268 267 267 266 266 265 265 264 264 264 263 262 261 259 257 254 252 251 249 247 245 242 240 238 236 234 231 228 224 220 217 211 207 204 201 200 200 199 196 192 188 182 177 171 168 166 164 163 163 163 163 166 171 178 185 193 204 216 227 237 246 254 261 268 273 276 279 282 285 287 289 291 292 294 294 295 296 297 298 298 298
270 269 268 267 266 266 265 265 265 265 264 264 263 263 262 261 260 257 254 252 249 247 246 245 243 241 237 234 231 228 225 221 215 207 199 194 189 187 184 181 180 178 175 174 172 170 169 167 163 159 155 153 152 152 152 154 157 160 166 173 181 188 198 211 223 233 242 250 257 264 269 273 275 278 282 284 286 288 290 292 294 295 297 298 299 299 300 300
268 266 265 264 264 263 263 263 263 262 261 260 259 257 255 252 248 245 242 241 240 239 238 236 234 229 224 219 213 204 196 187 178 171 166 166 166 165 163 161 159 157 156 157 157 157 156 154 150 147 145 143 144 148 150 153 158 164 171 177 186 194 204 215 227 237 246 255 261 265 268 272 275 279 282 284 286 288 290 293 295 296 297 299 300 301 303 304
264 263 261 260 260 259 258 257 256 254 252 251 249 246 244 240 237 235 234 232 232 230 227 224 217 208 197 186 178 170 165 161 157 155 152 152 151 149 148 146 145 146 147 148 147 147 145 143 141 139 140 141 144 149 151 156 163 169 176 182 191 200 208 219 231 242 250 258 262 266 269 272 276 280 283 284 286 289 292 294 296 297 299 301 303 304 306 307
260 257 254 252 250 247 245 243 241 240 238 237 235 233 229 225 223 222 220 218 214 210 202 193 182 172 165 160 157 154 151 149 147 144 142 140 140 139 138 138 138 139 140 140 139 138 137 136 136 137 140 143 147 152 156 163 169 175 181 187 195 205 214 225 237 247 255 261 265 268 272 276 279 282 284 286 289 292 294 296 298 300 301 303 304 305 307 308
254 248 244 238 233 229 225 222 220 219 218 216 212 208 203 200 197 194 189 184 179 174 167 161 157 153 150 147 144 142 140 139 136 135 134 133 133 132 131 131 132 133 133 133 133 132 133 133 135 138 142 147 152 157 163 168 173 179 187 194 201 211 223 235 245 254 261 267 270 273 277 280 283 285 287 289 293 295 297 299 300 302 303 303 304 305 307 308
240 230 220 211 203 199 196 194 194 193 191 188 184 179 174 171 167 162 159 156 154 152 150 148 145 141 138 135 133 132 131 130 130 129 128 127 126 125 125 127 128 128 128 129 129 130 132 134 138 142 147 153 158 163 168 173 179 185 194 202 210 220 233 245 254 261 269 274 277 279 282 285 287 288 291 293 296 298 299 300 301 302 303 304 305 306 308 309
199 189 182 177 174 173 172 171 169 166 163 160 158 156 154 152 149 146 145 143 142 141 139 136 133 130 128 126 126 125 125 125 125 124 123 122 122 122 123 124 124 125 126 127 128 131 134 138 142 148 153 158 162 167 172 179 186 195 203 213 221 231 243 253 262 269 276 279 281 283 285 287 289 291 293 295 297 298 299 300 302 303 304 305 307 308 308 309
159 156 155 153 152 150 147 144 141 138 135 132 130 130 130 131 131 130 129 129 131 131 128 126 125 123 122 121 121 121 121 122 121 120 120 120 120 121 121 122 122 123 125 127 129 132 136 141 146 151 156 161 165 171 179 186 195 204 213 223 232 242 252 261 269 275 280 283 284 285 287 289 291 293 295 297 298 299 300 301 302 304 305 306 307 308 309 310
136 135 134 132 131 129 127 125 123 120 117 115 114 114 115 115 115 114 115 120 123 123 121 120 120 119 119 118 118 119 120 119 118 118 118 118 118 119 119 120 121 123 125 128 131 135 139 143 148 153 160 166 172 179 187 195 202 212 224 235 245 254 263 269 275 280 283 284 285 286 288 290 293 295 297 298 299 300 302 303 304 305 305 306 307 308 309 310
122 121 121 120 120 119 117 115 113 112 111 110 109 109 108 107 108 110 114 118 119 119 118 118 118 118 118 118 117 117 117 116 115 115 115 115 116 117 118 119 121 124 127 130 134 138 142 147 152 159 166 172 179 187 197 206 215 228 242 252 259 265 271 276 280 283 284 284 286 288 290 292 295 297 299 300 301 302 303 304 305 305 306 306 307 308 309 309
116 116 116 116 115 114 112 111 110 109 108 107 106 106 106 108 110 114 117 118 118 118 118 118 117 116 116 115 115 114 113 113 113 113 113 114 115 117 119 121 124 126 130 133 137 142 147 152 157 163 169 174 182 195 208 221 236 252 262 267 270 273 277 281 283 284 285 286 288 290 292 295 297 298 300 301 302 303 304 305 305 306 306 306 307 308 309 309
114 114 114 113 112 111 110 110 109 108 107 107 107 108 110 112 114 115 116 117 118 117 116 116 115 114 113 113 113 112 112 112 113 114 115 117 119 121 123 125 127 130 133 137 140 145 149 154 158 164 169 173 186 207 226 241 257 269 275 279 280 280 281 283 286 286 287 288 290 292 295 296 298 299 300 301 302 304 305 305 305 305 306 306 307 308 308 309
113 112 111 110 110 110 110 109 108 108 108 109 110 112 113 114 114 115 115 115 115 114 114 113 113 112 112 112 113 113 113 115 116 118 120 121 123 125 127 129 131 134 136 139 142 146 150 153 158 167 174 184 204 225 241 252 263 271 276 281 283 284 285 285 287 287 288 290 292 295 297 298 299 300 301 302 303 304 305 305 305 305 306 307 307 308 308 309
111 110 110 110 110 110 110 109 110 110 111 112 113 113 113 114 114 114 113 113 112 112 112 112 112 112 113 114 115 116 117 118 120 121 123 124 126 128 131 133 135 137 139 141 144 148 153 157 164 176 185 204 229 239 245 250 258 267 272 276 280 283 284 285 285 286 288 291 294 297 299 300 300 301 302 302 304 304 304 305 305 305 306 307 307 308 308 309
110 110 110 110 110 111 111 111 112 112 113 114 114 114 113 113 113 112 112 112 112 112 112 113 114 115 116 118 118 119 120 120 122 123 125 126 128 130 133 135 137 139 141 143 145 149 157 167 178 192 205 233 251 254 253 254 260 267 274 278 281 283 284 285 285 287 289 292 296 298 299 300 301 301 302 303 303 304 304 305 305 306 306 307 307 308 308 309
111 110 110 111 111 112 112 112 113 113 114 114 114 114 113 113 113 112 112 112 113 114 115 117 117 117 119 121 120 121 122 123 124 125 127 129 130 132 134 135 136 137 139 141 146 152 167 189 205 223 247 261 267 267 265 266 270 276 282 284 285 285 286 287 288 289 292 294 297 299 300 301 301 302 302 303 303 304 304 305 306 307 307 307 308 309 309 310
112 112 112 112 112 112 112 112 112 113 113 113 113 114 114 114 114 114 114 115 116 116 118 119 118 119 122 122 121 122 123 124 126 128 130 132 132 134 135 136 136 138 144 152 166 183 207 228 242 261 271 272 273 274 273 277 284 289 291 291 290 289 289 290 291 292 294 296 298 299 301 302 302 303 303 303 303 304 305 305 306 307 307 308 309 309 310 310
114 114 114 113 113 112 112 112 112 112 112 112 112 113 114 116 116 117 117 117 117 117 120 121 119 122 124 123 122 123 124 125 128 130 132 134 136 138 140 142 144 151 164 184 208 230 250 267 277 277 276 278 280 282 283 287 292 295 295 294 293 292 292 292 292 294 296 297 298 299 302 303 303 303 304 304 304 304 305 305 306 306 307 308 308 309 309 310
115 115 115 115 114 114 114 114 114 114 114 114 114 115 116 117 118 118 119 119 118 119 121 121 120 124 125 124 125 125 127 130 133 136 138 142 144 146 150 153 163 179 199 226 249 266 277 283 284 283 284 287 290 290 292 294 296 297 296 295 295 294 293 292 293 294 296 299 300 300 301 303 304 304 304 304 304 304 304 305 306 307 307 308 308 308 309 310
116 116 116 116 117 117 117 118 118 117 118 117 117 117 118 119 118 120 121 119 119 120 121 120 121 125 125 125 127 128 132 134 138 143 145 148 151 154 166 177 189 213 247 267 275 279 281 283 286 289 292 293 294 295 297 298 298 298 297 296 295 294 293 292 293 294 297 300 302 302 302 303 304 304 304 304 304 304 305 306 307 307 307 308 309 310 311 311
117 117 118 118 119 120 120 121 121 121 121 120 119 119 120 120 117 120 122 119 119 120 120 121 124 127 127 126 128 131 135 137 140 146 148 154 162 171 199 216 236 267 283 285 284 284 284 287 289 290 291 293 296 299 300 300 300 299 298 296 295 293 293 293 294 296 298 301 303 304 303 302 303 304 303 304 304 305 306 307 307 307 308 309 310 311 312 312
119 119 120 121 121 122 122 123 123 123 123 122 120 120 121 119 116 118 122 119 118 120 121 124 127 129 129 127 129 132 137 143 145 149 154 167 188 217 253 273 284 289 291 290 288 288 287 287 288 289 292 296 298 299 300 300 300 298 296 294 293 293 294 295 297 299 300 301 302 304 305 303 303 304 305 305 306 307 307 307 307 308 309 310 311 312 312 313
121 121 121 122 123 123 124 124 124 124 124 122 120 121 122 119 116 118 121 118 117 119 122 125 128 130 130 130 131 131 137 152 157 159 179 214 246 268 284 289 289 289 289 290 290 290 290 292 295 298 299 300 299 299 300 299 298 296 295 294 294 294 296 297 299 300 301 301 300 302 305 304 303 305 307 306 307 307 307 307 307 308 309 310 311 312 313 313
122 123 123 124 124 124 125 126 125 125 125 123 123 125 124 121 120 121 123 120 117 119 122 124 127 129 130 132 132 128 131 189 209 233 265 279 286 293 296 293 291 290 291 294 296 297 299 301 302 302 301 301 301 300 299 298 297 297 297 297 297 297 298 298 299 300 300 300 300 300 302 303 301 302 305 305 304 305 305 306 307 308 309 310 311 312 313 314
124 124 125 126 127 128 128 128 128 128 127 127 129 130 127 125 126 125 126 125 121 121 122 124 129 129 129 134 120 315 288 284 286 295 301 302 302 301 300 299 299 299 301 303 304 304 305 305 305 304 303 303 302 301 300 299 298 299 299 299 299 299 299 299 299 299 300 300 300 299 299 302 300 300 303 304 303 304 305 307 308 309 309 310 311 312 313 314
126 127 128 129 130 131 131 131 131 131 131 133 135 134 131 132 132 131 132 132 128 124 120 120 129 128 126 269 314 305 297 297 299 302 303 303 303 304 305 306 307 307 308 309 308 307 306 306 305 304 304 303 302 301 301 300 300 299 299 299 299 299 299 299 299 299 300 300 300 299 299 302 302 299 301 304 304 305 307 308 310 311 310 310 311 311 312 313
129 130 132 133 134 134 133 134 135 136 137 140 141 141 140 139 137 137 138 138 134 128 106 103 130 269 301 302 305 305 306 305 305 305 305 305 307 310 312 312 312 310 309 308 307 306 305 304 304 303 303 302 302 301 301 300 300 299 299 299 298 298 299 299 299 299 300 300 300 301 301 302 302 299 299 303 304 304 306 308 310 311 310 310 310 311 311 312
132 134 136 137 138 138 138 139 141 142 145 147 148 149 147 146 146 147 149 154 165 268 335 318 303 303 300 300 301 302 305 306 308 309 310 311 312 314 314 313 311 309 307 305 304 304 303 303 302 302 301 301 300 300 300 299 299 299 299 299 298 299 299 299 299 300 300 301 301 303 302 303 303 300 299 302 303 304 305 307 309 311 311 310 310 311 310 310
135 137 139 140 141 142 143 146 149 151 153 155 157 158 159 161 166 175 193 231 257 281 299 299 297 299 301 301 302 303 305 308 310 311 311 311 310 309 309 308 307 306 305 304 303 302 302 301 300 300 299 299 299 299 299 299 298 298 298 298 298 299 299 300 300 300 301 301 302 303 304 305 306 303 301 302 303 304 305 307 310 311 311 310 310 311 310 309
140 141 143 144 146 147 149 153 158 162 164 167 171 174 179 187 200 219 238 258 274 282 288 291 294 298 301 303 305 306 308 309 309 309 308 306 305 304 304 304 304 304 303 302 302 301 300 300 300 299 299 299 299 299 298 298 298 298 297 297 298 298 299 300 300 300 301 301 302 304 304 306 307 305 303 303 303 304 307 309 310 311 311 310 310 310 310 308
149 150 151 152 155 158 160 164 171 177 181 184 190 197 207 219 232 249 264 277 286 290 292 294 296 299 300 302 304 304 304 304 304 303 302 301 301 300 301 301 302 302 302 302 302 301 300 299 299 299 299 299 299 299 299 299 298 299 298 297 297 297 297 298 298 299 300 301 303 304 305 307 308 306 305 304 304 305 307 309 310 311 310 309 309 309 308 308
159 160 163 165 168 172 177 183 192 202 211 217 223 229 238 249 259 270 279 286 290 292 294 296 297 298 298 298 297 298 298 298 299 299 298 298 298 299 299 300 301 301 301 301 302 302 300 299 299 299 298 298 298 298 298 299 299 299 298 298 297 297 296 297 297 297 299 300 302 303 304 307 308 306 304 303 303 304 307 310 310 310 309 308 307 307 307 308
169 173 176 180 185 190 196 205 215 226 236 244 249 254 259 264 269 275 278 282 286 289 292 293 293 293 293 293 293 294 295 295 296 297 297 297 297 298 299 300 301 301 301 301 301 301 301 299 298 298 298 297 297 297 297 297 297 297 297 298 298 297 297 297 297 297 297 299 301 303 303 306 307 305 303 302 302 304 307 309 309 309 308 308 306 306 306 307
181 186 191 196 202 208 215 222 230 238 246 252 258 263 268 270 273 276 279 281 283 285 287 288 290 291 291 292 293 294 294 295 296 297 297 298 298 298 298 299 299 299 299 299 299 299 300 299 298 297 297 297 297 296 296 296 296 296 296 297 297 298 298 298 298 299 298 298 300 302 302 305 306 304 303 303 303 305 308 308 307 308 308 306 305 305 306 307
194 199 205 212 219 226 233 238 244 250 254 260 264 268 272 274 275 278 279 282 283 285 286 287 289 290 291 293 294 295 296 296 296 297 297 297 298 298 298 297 298 297 297 297 297 297 298 298 298 297 297 297 297 297 296 296 296 296 297 297 297 298 298 298 298 299 299 299 301 302 303 305 306 306 305 303 304 306 306 305 306 307 306 304 304 305 306 307
206 212 219 226 234 241 246 251 254 258 262 266 269 271 274 275 276 278 279 281 283 285 287 288 289 291 292 293 294 294 296 296 296 296 297 297 297 296 296 296 296 296 295 295 295 295 296 297 298 297 298 298 298 298 298 298 298 299 299 299 298 299 298 298 299 299 299 300 301 303 303 305 307 307 305 304 305 306 305 306 307 307 306 305 306 307 308 308
218 225 232 240 247 251 256 259 261 264 266 269 271 273 275 276 277 279 280 281 283 285 287 288 290 292 292 293 294 294 295 295 295 296 295 296 295 295 295 295 294 294 294 294 294 294 294 295 297 297 298 298 299 299 299 299 299 300 300 300 300 300 299 299 300 300 301 300 301 302 303 305 308 306 304 304 305 305 305 307 308 307 307 306 307 308 308 307
232 239 244 250 256 259 262 264 266 268 270 272 274 275 277 278 279 280 281 283 284 285 287 288 290 291 292 292 293 294 294 294 294 295 295 295 295 295 294 294 294 294 294 293 293 293 293 293 295 296 296 297 297 298 299 299 300 300 301 301 300 300 300 300 300 301 302 301 302 302 302 306 309 305 304 305 305 304 305 306 306 306 306 306 307 307 306 306
244 248 252 257 260 263 266 267 269 271 273 275 276 278 279 280 281 282 282 283 284 285 287 288 289 290 291 291 292 293 293 294 294 294 294 294 294 294 294 294 294 293 293 293 292 292 292 292 294 295 296 296 297 297 298 299 300 301 301 301 301 300 300 300 300 301 302 302 303 302 303 308 309 305 305 305 304 304 305 305 304 304 304 305 305 305 304 304
251 254 257 260 263 265 268 270 272 274 276 277 279 280 280 280 281 282 283 284 285 286 287 287 289 289 290 291 292 292 293 294 294 294 294 294 294 294 293 293 293 292 292 292 292 291 291 292 294 295 296 297 297 298 299 299 301 301 302 302 301 301 301 301 301 302 303 303 303 302 304 308 308 305 304 303 303 304 304 303 303 303 303 303 303 303 303 302
256 259 261 264 267 268 270 272 273 275 277 278 279 280 281 281 282 283 283 284 285 286 287 288 289 290 290 292 292 293 294 294 294 294 294 293 293 293 293 292 292 292 292 292 292 292 293 294 295 296 297 297 298 298 299 300 301 302 302 302 302 301 302 302 302 303 303 303 302 302 303 306 306 304 303 302 303 304 303 303 302 302 302 302 301 301 301 302
260 262 265 267 269 270 272 274 275 276 277 279 280 281 281 282 283 284 285 286 287 288 288 289 290 291 292 293 293 294 294 294 294 294 294 294 294 294 293 293 293 293 293 293 294 294 295 295 296 297 298 298 299 299 300 301 302 303 302 302 301 301 301 301 301 301 301 301 300 300 302 304 304 304 303 302 303 303 303 303 302 302 301 301 300 301 301 301
264 266 267 269 271 272 274 276 278 279 280 281 282 283 284 284 286 287 287 288 289 290 290 291 291 292 293 293 294 294 294 294 295 295 295 295 295 294 294 294 294 294 295 295 296 297 298 298 298 299 298 298 298 298 299 300 301 301 301 300 299 299 299 299 298 298 298 299 300 301 302 303 304 303 302 302 302 302 302 302 301 301 300 300 300 300 301 301
268 269 271 272 274 276 278 280 281 282 283 284 285 285 286 287 288 289 290 290 291 291 292 292 292 293 293 293 294 294 294 294 294 294 294 295 295 295 295 296 296 297 298 298 299 300 301 301 301 302 301 300 300 299 299 299 300 300 300 299 298 298 298 298 298 298 299 299 301 302 302 302 302 301 300 300 301 302 301 301 300 300 300 300 300 300 300 301
271 274 276 278 279 280 282 283 284 285 285 286 286 287 288 289 290 291 291 292 292 292 293 293 293 294 294 294 294 294 294 294 294 295 295 295 296 296 297 298 298 299 300 300 301 301 302 302 302 302 303 302 302 302 302 302 301 301 300 298 298 297 297 297 298 299 299 300 300 300 300 300 299 299 299 300 301 301 301 300 299 298 299 299 300 300 301 300
276 278 280 282 283 284 285 286 286 287 287 288 288 289 290 290 291 292 292 293 293 293 293 293 293 294 294 294 294 294 295 295 295 296 296 297 298 299 299 300 300 300 301 301 301 301 301 302 302 302 302 302 302 302 301 301 300 299 298 296 296 296 296 297 299 299 300 300 300 299 298 298 299 299 300 301 301 301 300 299 298 298 298 299 300 300 299 299
279 281 283 284 284 285 286 287 287 288 289 289 290 290 291 291 292 292 293 293 293 293 293 293 293 293 293 294 294 295 295 296 297 298 298 299 300 300 300 300 300 300 301 301 301 301 301 302 301 301 301 300 300 300 299 299 299 298 297 296 296 296 298 299 300 300 300 300 299 299 298 299 300 300 301 301 301 300 300 299 298 298 298 299 299 298 298 298
281 282 283 283 284 285 285 286 287 288 289 290 290 290 291 291 291 292 292 292 293 293 293 293 293 294 294 295 295 296 296 296 297 298 298 298 299 299 299 300 300 300 301 301 301 301 301 301 301 301 301 301 301 300 300 300 300 300 299 298 299 301 302 302 302 301 300 300 299 299 299 301 301 301 301 301 301 301 300 299 298 298 299 299 299 298 298 298
280 281 281 282 283 284 285 286 287 288 288 288 289 289 290 290 291 291 292 292 293 293 293 294 294 295 295 295 296 296 296 296 297 297 297 298 298 299 299 300 300 300 301 301 301 301 301 302 302 302 303 303 303 303 303 303 302 302 301 301 303 304 304 304 303 302 301 301 300 300 301 302 301 301 301 301 301 301 299 298 297 298 299 299 298 298 298 298
278 280 281 282 283 284 285 286 286 287 287 288 289 289 290 290 291 292 292 293 293 294 294 295 295 296 296 297 297 297 298 298 298 299 299 299 299 300 300 301 301 302 302 302 303 303 303 303 304 304 305 305 305 305 305 305 304 303 302 303 305 306 305 305 305 304 303 301 300 300 301 301 300 299 299 299 300 299 298 297 297 298 299 298 298 299 299 300
280 281 282 283 284 284 285 286 286 287 288 289 289 290 291 291 292 292 293 293 294 294 295 296 296 297 298 298 299 299 299 299 300 300 300 301 301 302 303 303 304 304 305 305 306 306 306 306 306 306 307 307 307 307 307 307 306 305 304 305 306 306 305 305 306 306 304 302 302 303 303 302 301 301 300 300 301 300 299 298 298 298 299 299 299 299 299 299
Height
10692 10691 10690 10689 10688 10687 10686 10685 10686 10686 10686 10686 10686 10686 10687 10687 10688 10688 10689 10689 10689 10690 10690 10691 10692 10694 10695 10697 10698 10699 10701 10703 10705 10707 10709 10711 10713 10715 10717 10720 10722 10724 10727 10730 10732 10735 10738 10740 10742 10744 10746 10747 10749 10750 10752 10753 10754 10755 10756 10756 10756 10756 10756 10756 10755 10755 10754 10753 10752 10751 10750 10748 10747 10745 10743 10741 10739 10737 10735 10733 10731 10728 10726 10724 10721 10719 10717 10714
10687 10685 10684 10683 10682 10681 10680 10680 10680 10680 10680 10680 10681 10681 10682 10683 10684 10684 10684 10684 10685 10685 10687 10688 10690 10691 10693 10695 10696 10698 10700 10702 10704 10706 10708 10710 10712 10714 10716 10718 10721 10723 10726 10729 10732 10735 10737 10740 10742 10743 10745 10747 10748 10750 10751 10753 10754 10755 10755 10755 10755 10755 10755 10755 10754 10754 10753 10752 10751 10749 10748 10746 10745 10743 10741 10739 10737 10735 10732 10730 10728 10726 10723 10721 10718 10716 10713 10710
10681 10680 10678 10677 10676 10676 10676 10675 10676 10676 10676 10676 10677 10677 10678 10679 10679 10679 10680 10680 10681 10683 10684 10686 10688 10690 10692 10693 10695 10697 10699 10701 10703 10704 10706 10709 10711 10713 10715 10718 10720 10723 10726 10729 10732 10735 10737 10739 10741 10743 10745 10747 10749 10750 10752 10753 10754 10754 10755 10755 10755 10754 10754 10754 10753 10752 10751 10750 10749 10748 10746 10744 10743 10741 10739 10737 10734 10732 10730 10728 10725 10723 10720 10717 10714 10711 10708 10705
10676 10674 10673 10673 10672 10672 10672 10672 10672 10672 10672 10673 10673 10673 10674 10675 10675 10676 10677 10678 10679 10681 10683 10685 10687 10689 10691 10692 10694 10696 10698 10700 10702 10704 10706 10709 10711 10714 10716 10718 10721 10724 10727 10730 10732 10735 10737 10740 10742 10744 10746 10748 10750 10751 10752 10753 10754 10754 10754 10754 10754 10754 10753 10753 10752 10751 10750 10749 10747 10746 10744 10743 10741 10739 10737 10734 10732 10730 10727 10725 10722 10719 10716 10713 10710 10707 10704 10701
10670 10670 10669 10669 10669 10669 10669 10669 10669 10669 10670 10670 10670 10671 10671 10672 10673 10674 10675 10676 10678 10680 10682 10684 10686 10688 10690 10692 10694 10696 10698 10700 10702 10705 10707 10710 10712 10715 10717 10720 10723 10726 10729 10731 10734 10736 10739 10741 10743 10745 10748 10749 10751 10752 10753 10754 10754 10754 10754 10754 10754 10753 10752 10752 10751 10750 10749 10747 10746 10744 10742 10740 10738 10736 10734 10732 10730 10727 10724 10721 10718 10715 10712 10709 10706 10703 10700 10697
10666 10666 10666 10666 10666 10666 10667 10667 10667 10667 10667 10668 10668 10669 10669 10670 10671 10672 10674 10676 10678 10680 10682 10684 10686 10688 10690 10693 10695 10697 10700 10702 10704 10707 10709 10712 10715 10717 10720 10723 10725 10728 10731 10733 10736 10738 10741 10743 10745 10748 10750 10751 10752 10753 10754 10754 10754 10754 10754 10754 10753 10752 10752 10751 10750 10749 10748 10746 10744 10743 10741 10738 10736 10734 10732 10730 10727 10724 10721 10718 10715 10712 10709 10706 10703 10700 10696 10693
10664 10664 10664 10664 10665 10665 10665 10665 10666 10666 10666 10667 10667 10668 10668 10669 10671 10672 10674 10675 10677 10680 10682 10685 10687 10690 10692 10695 10697 10700 10702 10705 10707 10710 10712 10715 10717 10720 10723 10726 10728 10731 10733 10736 10738 10741 10743 10746 10748 10750 10751 10753 10753 10754 10754 10755 10755 10754 10754 10754 10753 10752 10751 10750 10749 10748 10746 10745 10743 10741 10739 10736 10734 10731 10729 10726 10724 10721 10718 10715 10712 10708 10705 10702 10698 10695 10692 10688
10663 10663 10663 10664 10664 10664 10665 10665 10666 10666 10667 10667 10668 10669 10669 10670 10671 10673 10675 10677 10679 10681 10684 10687 10690 10692 10695 10698 10701 10703 10706 10709 10711 10713 10715 10718 10720 10723 10726 10729 10732 10734 10737 10739 10742 10744 10746 10748 10750 10752 10753 10754 10755 10755 10755 10755 10755 10755 10754 10753 10752 10752 10751 10750 10748 10747 10745 10743 10741 10739 10737 10734 10731 10729 10726 10723 10720 10717 10714 10711 10708 10705 10701 10698 10694 10690 10687 10683
10662 10663 10663 10664 10665 10665 10666 10667 10667 10668 10669 10669 10670 10670 10671 10672 10674 10675 10677 10679 10682 10684 10687 10690 10693 10695 10698 10701 10704 10707 10710 10712 10714 10717 10719 10722 10724 10727 10730 10733 10735 10738 10740 10743 10745 10747 10750 10751 10753 10754 10755 10756 10756 10756 10756 10756 10755 10755 10754 10753 10752 10751 10750 10748 10747 10745 10743 10741 10739 10737 10734 10732 10729 10726 10723 10720 10717 10714 10711 10708 10704 10700 10697 10693 10689 10685 10682 10678
10663 10664 10665 10666 10667 10667 10668 10669 10670 10670 10671 10671 10672 10673 10674 10675 10676 10678 10680 10683 10685 10687 10690 10693 10696 10699 10702 10705 10708 10711 10714 10716 10719 10721 10724 10727 10729 10732 10735 10737 10740 10742 10744 10746 10749 10751 10752 10754 10755 10756 10757 10757 10757 10757 10757 10756 10755 10754 10753 10752 10751 10750 10748 10747 10745 10743 10741 10739 10736 10734 10732 10729 10726 10723 10720 10717 10714 10711 10707 10703 10700 10696 10692 10689 10685 10680 10676 10672
10665 10666 10667 10668 10669 10670 10671 10672 10672 10673 10673 10674 10674 10675 10676 10677 10679 10681 10684 10687 10689 10691 10693 10697 10700 10703 10706 10708 10712 10716 10719 10721 10724 10727 10730 10732 10735 10737 10739 10742 10744 10746 10748 10750 10751 10753 10754 10756 10756 10757 10758 10758 10758 10757 10757 10756 10754 10753 10752 10751 10749 10748 10746 10744 10742 10740 10738 10736 10734 10731 10729 10726 10723 10720 10716 10713 10710 10707 10703 10699 10696 10692 10688 10683 10680 10676 10671 10667
10668 10669 10671 10672 10673 10674 10674 10675 10676 10676 10677 10677 10678 10679 10680 10682 10684 10687 10689 10691 10693 10695 10698 10701 10704 10707 10711 10714 10717 10721 10724 10727 10730 10732 10735 10737 10739 10741 10743 10745 10747 10749 10751 10752 10753 10755 10756 10757 10757 10757 10758 10757 10757 10757 10756 10755 10753 10752 10751 10749 10747 10746 10744 10742 10740 10738 10736 10734 10731 10728 10725 10722 10719 10716 10712 10709 10706 10703 10699 10695 10691 10687 10683 10678 10674 10670 10666 10661
10672 10673 10674 10675 10677 10677 10678 10679 10680 10680 10681 10682 10683 10685 10686 10688 10690 10692 10694 10696 10698 10701 10703 10706 10710 10713 10716 10720 10722 10726 10728 10731 10734 10736 10739 10741 10743 10745 10746 10748 10750 10751 10753 10754 10755 10756 10756 10757 10757 10757 10757 10756 10756 10755 10754 10753 10751 10750 10749 10747 10745 10743 10741 10739 10737 10735 10733 10731 10728 10725 10722 10719 10715 10712 10708 10705 10702 10698 10695 10690 10686 10682 10678 10673 10669 10665 10660 10656
10676 10677 10678 10680 10681 10682 10683 10684 10684 10685 10687 10689 10690 10691 10693 10695 10697 10699 10701 10703 10705 10707 10710 10712 10716 10718 10721 10725 10727 10730 10733 10735 10738 10740 10742 10743 10745 10747 10748 10750 10751 10753 10754 10754 10755 10756 10756 10756 10756 10756 10755 10755 10754 10753 10752 10750 10749 10748 10746 10744 10743 10741 10739 10737 10735 10732 10730 10727 10724 10721 10718 10715 10711 10708 10704 10701 10697 10694 10690 10686 10681 10677 10673 10668 10663 10659 10654 10650
10680 10681 10683 10684 10686 10687 10688 10689 10690 10691 10693 10695 10697 10698 10699 10701 10703 10705 10707 10709 10710 10713 10716 10718 10722 10724 10726 10730 10732 10733 10736 10739 10741 10742 10744 10746 10747 10749 10750 10751 10752 10753 10753 10754 10754 10755 10755 10754 10754 10754 10753 10753 10752 10751 10750 10748 10747 10745 10743 10742 10740 10738 10736 10734 10732 10729 10727 10724 10721 10717 10714 10710 10707 10703 10700 10696 10693 10689 10685 10681 10676 10672 10667 10662 10658 10653 10649 10644
10685 10686 10688 10690 10692 10693 10694 10696 10697 10698 10700 10701 10703 10704 10705 10707 10709 10711 10713 10715 10716 10719 10721 10723 10726 10729 10731 10734 10735 10737 10739 10741 10743 10745 10747 10748 10750 10751 10752 10752 10753 10753 10754 10754 10754 10754 10753 10753 10753 10752 10751 10751 10750 10749 10748 10746 10744 10743 10741 10739 10737 10735 10733 10730 10728 10726 10723 10720 10717 10714 10710 10707 10703 10699 10696 10692 10688 10685 10680 10676 10671 10666 10662 10657 10652 10647 10642 10638
10690 10692 10694 10696 10698 10700 10701 10702 10704 10705 10707 10708 10709 10709 10711 10712 10714 10716 10718 10720 10722 10724 10726 10728 10730 10732 10736 10737 10738 10740 10742 10744 10746 10747 10749 10750 10751 10752 10753 10753 10754 10754 10754 10754 10754 10754 10753 10753 10752 10751 10750 10750 10749 10748 10746 10744 10742 10740 10738 10736 10734 10732 10729 10727 10725 10722 10719 10716 10713 10710 10706 10702 10699 10695 10691 10688 10684 10679 10675 10670 10665 10661 10656 10651 10645 10640 10635 10631
10695 10697 10700 10702 10704 10707 10708 10709 10710 10712 10714 10715 10716 10716 10716 10718 10719 10721 10723 10725 10726 10728 10731 10733 10733 10735 10739 10741 10741 10743 10745 10746 10748 10749 10750 10751 10752 10752 10753 10753 10754 10754 10754 10754 10754 10753 10752 10752 10751 10750 10749 10748 10747 10745 10744 10741 10739 10737 10735 10733 10731 10728 10726 10723 10721 10718 10715 10712 10709 10706 10702 10697 10694 10691 10686 10682 10678 10674 10669 10665 10660 10655 10650 10645 10640 10634 10629 10623
10701 10702 10705 10707 10710 10712 10714 10716 10718 10719 10721 10722 10724 10724 10723 10724 10724 10726 10727 10729 10731 10732 10736 10737 10736 10739 10742 10742 10743 10745 10746 10748 10749 10750 10751 10752 10752 10752 10753 10753 10753 10753 10753 10753 10752 10751 10751 10750 10749 10748 10747 10746 10744 10742 10740 10738 10736 10734 10732 10729 10727 10725 10722 10720 10717 10714 10710 10707 10704 10701 10698 10693 10688 10685 10682 10677 10672 10668 10664 10659 10654 10649 10644 10639 10634 10629 10624 10618
10707 10708 10710 10712 10714 10717 10719 10721 10723 10725 10727 10727 10729 10731 10731 10730 10730 10731 10732 10733 10735 10736 10739 10740 10741 10743 10744 10744 10745 10746 10747 10748 10750 10751 10751 10752 10752 10752 10752 10752 10752 10752 10752 10751 10750 10750 10749 10748 10747 10746 10745 10743 10741 10739 10737 10735 10733 10730 10728 10725 10723 10720 10718 10715 10712 10709 10706 10702 10698 10695 10693 10689 10683 10678 10676 10672 10667 10662 10658 10654 10649 10643 10638 10632 10627 10623 10618 10612
10713 10714 10716 10717 10719 10721 10723 10725 10727 10729 10731 10732 10733 10735 10737 10737 10736 10737 10737 10737 10739 10740 10742 10744 10745 10746 10747 10747 10747 10748 10749 10749 10750 10751 10752 10752 10752 10752 10752 10752 10752 10751 10751 10750 10749 10748 10748 10747 10745 10744 10742 10740 10738 10736 10734 10731 10729 10726 10724 10721 10719 10716 10713 10711 10708 10705 10701 10698 10694 10689 10685 10685 10680 10672 10668 10665 10661 10657 10652 10647 10643 10637 10632 10626 10620 10615 10610 10605
10719 10720 10721 10723 10724 10725 10727 10729 10730 10733 10735 10736 10737 10738 10741 10741 10741 10743 10743 10740 10742 10744 10745 10747 10749 10749 10750 10750 10750 10751 10751 10751 10752 10752 10753 10753 10753 10753 10753 10752 10751 10751 10750 10749 10749 10747 10746 10745 10743 10741 10740 10738 10735 10733 10730 10728 10725 10722 10720 10717 10715 10712 10709 10706 10703 10700 10697 10693 10690 10685 10678 10676 10677 10670 10662 10658 10654 10650 10646 10641 10637 10632 10625 10620 10613 10608 10603 10598
10724 10725 10727 10728 10729 10730 10731 10733 10734 10736 10738 10739 10741 10742 10744 10745 10745 10748 10749 10746 10746 10748 10749 10750 10752 10753 10753 10753 10753 10753 10754 10754 10754 10753 10754 10754 10753 10753 10752 10752 10751 10750 10750 10748 10747 10746 10744 10742 10741 10739 10737 10734 10732 10729 10727 10724 10722 10719 10716 10713 10710 10707 10704 10701 10698 10695 10692 10689 10686 10682 10674 10666 10668 10667 10658 10651 10647 10642 10639 10634 10630 10626 10619 10613 10608 10602 10597 10592
10729 10730 10731 10733 10734 10735 10736 10738 10739 10740 10742 10743 10744 10746 10747 10748 10749 10751 10753 10752 10751 10751 10752 10753 10754 10755 10755 10755 10755 10755 10755 10755 10755 10755 10754 10754 10753 10753 10752 10751 10751 10750 10748 10747 10745 10743 10741 10739 10737 10735 10733 10731 10728 10726 10724 10721 10718 10714 10711 10709 10705 10702 10699 10697 10694 10690 10687 10683 10680 10679 10674 10662 10656 10660 10656 10647 10642 10637 10632 10628 10623 10619 10614 10608 10602 10597 10592 10587
10733 10734 10735 10737 10738 10739 10741 10742 10743 10744 10746 10746 10747 10749 10750 10751 10751 10753 10754 10754 10754 10754 10755 10755 10756 10756 10756 10756 10756 10756 10756 10756 10756 10755 10755 10754 10753 10752 10752 10751 10750 10748 10747 10744 10742 10740 10738 10736 10734 10732 10730 10727 10725 10722 10719 10717 10713 10709 10706 10703 10700 10697 10694 10691 10689 10686 10681 10678 10673 10671 10673 10664 10650 10650 10652 10644 10637 10633 10627 10623 10617 10611 10608 10603 10597 10592 10586 10581
10738 10738 10739 10741 10742 10743 10744 10745 10746 10747 10748 10749 10750 10751 10752 10753 10753 10754 10755 10756 10756 10756 10756 10757 10757 10757 10757 10757 10757 10757 10756 10756 10756 10755 10754 10753 10753 10752 10751 10749 10748 10746 10744 10742 10739 10737 10735 10733 10731 10729 10726 10723 10720 10717 10714 10712 10709 10705 10702 10699 10695 10692 10689 10686 10683 10680 10676 10672 10668 10662 10664 10663 10649 10641 10644 10639 10631 10626 10620 10616 10611 10604 10600 10596 10591 10586 10580 10574
10741 10742 10743 10744 10745 10746 10747 10747 10749 10750 10751 10752 10752 10753 10754 10754 10755 10755 10756 10756 10757 10757 10757 10758 10758 10758 10757 10757 10757 10756 10756 10756 10755 10754 10753 10752 10751 10750 10749 10747 10745 10743 10742 10739 10737 10735 10733 10730 10728 10725 10722 10720 10716 10713 10710 10707 10704 10700 10697 10694 10690 10687 10684 10681 10677 10675 10671 10666 10662 10656 10652 10654 10646 10636 10637 10634 10625 10620 10614 10608 10604 10597 10591 10587 10583 10579 10574 10568
10744 10745 10746 10747 10748 10749 10750 10750 10751 10752 10753 10754 10754 10755 10755 10755 10756 10756 10757 10757 10757 10758 10758 10758 10758 10757 10757 10757 10756 10755 10755 10754 10753 10752 10752 10750 10749 10748 10746 10744 10743 10741 10739 10737 10735 10732 10729 10727 10724 10721 10718 10715 10712 10709 10705 10702 10699 10695 10692 10689 10685 10682 10678 10675 10671 10668 10666 10660 10655 10651 10645 10644 10640 10628 10628 10629 10621 10615 10610 10605 10600 10593 10586 10580 10576 10571 10565 10560
10748 10749 10749 10750 10751 10751 10752 10753 10753 10754 10755 10755 10756 10756 10756 10756 10757 10757 10757 10757 10757 10757 10757 10757 10757 10756 10756 10755 10755 10754 10753 10752 10751 10750 10749 10748 10747 10745 10744 10742 10740 10738 10736 10734 10731 10729 10726 10723 10720 10717 10714 10711 10707 10704 10701 10697 10694 10691 10688 10684 10680 10677 10673 10669 10665 10662 10660 10655 10650 10645 10638 10635 10632 10621 10617 10620 10616 10610 10606 10602 10597 10591 10581 10573 10569 10564 10557 10550
10751 10752 10752 10752 10753 10753 10754 10754 10755 10756 10756 10757 10757 10757 10757 10757 10757 10757 10757 10757 10757 10757 10756 10756 10756 10755 10755 10754 10753 10753 10752 10751 10749 10748 10747 10746 10744 10742 10741 10739 10737 10735 10732 10730 10727 10724 10721 10718 10715 10712 10709 10706 10702 10699 10696 10692 10689 10686 10682 10679 10675 10671 10667 10663 10659 10656 10654 10649 10645 10640 10633 10628 10623 10613 10607 10607 10606 10603 10601 10597 10592 10586 10576 10565 10560 10556 10549 10542
10753 10754 10754 10755 10755 10755 10756 10756 10757 10757 10757 10757 10757 10757 10757 10757 10757 10757 10757 10756 10756 10756 10756 10756 10755 10754 10754 10753 10752 10751 10750 10749 10747 10746 10744 10743 10741 10739 10737 10735 10733 10731 10728 10725 10723 10720 10716 10713 10710 10707 10703 10700 10697 10693 10690 10686 10683 10679 10675 10673 10670 10666 10662 10658 10653 10650 10647 10643 10640 10636 10629 10624 10615 10604 10599 10596 10593 10593 10594 10591 10587 10581 10570 10558 10550 10546 10540 10534
10755 10755 10756 10756 10756 10757 10757 10757 10758 10758 10758 10758 10757 10757 10757 10757 10757 10757 10757 10756 10756 10756 10755 10755 10754 10754 10753 10752 10750 10749 10748 10746 10745 10743 10741 10739 10737 10735 10733 10730 10728 10726 10724 10721 10718 10714 10711 10708 10705 10702 10698 10695 10691 10687 10683 10680 10676 10673 10668 10664 10662 10659 10657 10653 10648 10644 10641 10638 10635 10630 10625 10622 10612 10597 10590 10587 10583 10582 10585 10584 10581 10575 10565 10552 10542 10536 10531 10525
10755 10756 10756 10757 10757 10758 10758 10758 10759 10759 10759 10758 10758 10758 10758 10758 10757 10757 10757 10756 10756 10755 10754 10754 10753 10752 10751 10749 10748 10746 10745 10743 10741 10740 10738 10735 10733 10731 10729 10726 10724 10722 10719 10717 10714 10710 10705 10702 10699 10696 10692 10689 10685 10681 10677 10673 10670 10666 10661 10657 10653 10649 10648 10646 10643 10639 10637 10634 10630 10625 10621 10619 10612 10594 10583 10580 10576 10574 10578 10576 10571 10565 10558 10547 10535 10527 10522 10517
10756 10757 10757 10757 10758 10758 10758 10758 10759 10759 10759 10758 10758 10758 10758 10757 10757 10757 10756 10755 10755 10754 10753 10752 10751 10750 10748 10747 10745 10743 10741 10740 10738 10736 10734 10731 10729 10727 10725 10722 10719 10717 10714 10711 10709 10706 10700 10695 10693 10690 10686 10683 10679 10675 10671 10667 10664 10659 10654 10650 10645 10640 10637 10635 10633 10630 10629 10630 10628 10622 10616 10614 10609 10592 10577 10573 10569 10568 10570 10566 10560 10554 10547 10539 10528 10520 10515 10509
10757 10757 10758 10758 10758 10758 10758 10758 10758 10758 10758 10758 10758 10758 10757 10757 10756 10756 10755 10754 10753 10752 10751 10750 10748 10747 10745 10744 10742 10740 10739 10737 10735 10732 10730 10727 10725 10722 10720 10717 10714 10711 10709 10706 10703 10701 10696 10689 10686 10684 10680 10676 10673 10668 10664 10660 10657 10653 10648 10643 10639 10634 10628 10624 10622 10619 10616 10618 10622 10619 10613 10610 10605 10590 10573 10562 10557 10561 10563 10556 10549 10543 10536 10528 10521 10514 10508 10502
10758 10758 10758 10759 10759 10759 10759 10759 10759 10758 10758 10758 10758 10757 10757 10756 10756 10755 10754 10753 10751 10750 10749 10747 10746 10745 10743 10741 10739 10737 10735 10733 10731 10728 10725 10723 10720 10717 10715 10712 10709 10706 10703 10701 10697 10696 10692 10685 10679 10676 10673 10669 10665 10661 10656 10651 10648 10645 10641 10636 10631 10627 10621 10615 10613 10611 10605 10604 10610 10610 10606 10604 10598 10587 10574 10557 10547 10550 10550 10544 10540 10533 10524 10518 10513 10507 10501 10493
10758 10759 10759 10759 10759 10759 10759 10759 10759 10758 10758 10757 10757 10757 10756 10755 10754 10753 10752 10751 10749 10748 10747 10745 10743 10742 10740 10738 10736 10733 10731 10729 10726 10724 10720 10717 10714 10712 10709 10706 10703 10700 10696 10694 10691 10688 10687 10683 10674 10669 10666 10663 10658 10655 10649 10644 10640 10636 10632 10628 10623 10619 10613 10608 10604 10601 10595 10592 10596 10598 10597 10596 10588 10578 10570 10557 10545 10538 10531 10528 10526 10518 10509 10504 10499 10496 10490 10482
10758 10759 10759 10759 10759 10759 10759 10758 10758 10757 10757 10756 10755 10755 10754 10753 10752 10751 10750 10749 10747 10745 10744 10742 10740 10738 10736 10734 10732 10729 10727 10724 10721 10718 10715 10712 10708 10705 10702 10699 10696 10693 10690 10687 10685 10681 10679 10679 10673 10665 10661 10657 10652 10648 10644 10639 10634 10630 10625 10619 10614 10609 10604 10599 10594 10589 10583 10579 10581 10583 10585 10588 10581 10565 10558 10553 10544 10532 10522 10518 10512 10503 10495 10490 10486 10483 10478 10470
10758 10758 10758 10758 10758 10757 10757 10756 10756 10755 10755 10754 10753 10752 10752 10751 10750 10749 10747 10746 10744 10742 10740 10738 10736 10734 10732 10729 10727 10724 10721 10719 10716 10713 10710 10706 10703 10699 10696 10693 10689 10686 10683 10680 10678 10674 10671 10671 10670 10663 10657 10652 10648 10643 10638 10634 10628 10624 10618 10611 10605 10599 10593 10589 10585 10579 10570 10565 10564 10563 10568 10579 10573 10555 10546 10543 10535 10525 10517 10514 10506 10495 10486 10480 10475 10471 10465 10459
10756 10756 10756 10756 10755 10755 10754 10754 10753 10753 10752 10751 10751 10750 10749 10748 10746 10745 10744 10742 10740 10738 10736 10734 10732 10729 10727 10724 10722 10719 10716 10713 10710 10707 10704 10700 10697 10693 10689 10686 10683 10679 10676 10673 10670 10667 10664 10663 10664 10660 10652 10647 10643 10638 10633 10629 10623 10617 10610 10602 10595 10589 10582 10578 10577 10573 10562 10553 10549 10542 10547 10562 10559 10543 10536 10529 10522 10517 10509 10504 10498 10488 10480 10472 10465 10459 10452 10447
10754 10754 10754 10753 10753 10752 10752 10751 10751 10750 10749 10748 10748 10747 10745 10744 10743 10741 10739 10738 10736 10734 10731 10729 10727 10724 10722 10720 10717 10714 10711 10708 10704 10701 10698 10694 10691 10687 10683 10679 10676 10672 10669 10666 10662 10660 10657 10656 10657 10655 10649 10642 10637 10631 10626 10622 10617 10610 10601 10592 10584 10577 10571 10565 10564 10564 10556 10545 10537 10527 10529 10544 10542 10530 10525 10515 10509 10508 10500 10490 10486 10479 10471 10464 10456 10448 10440 10434
10752 10751 10751 10751 10750 10750 10749 10748 10748 10747 10746 10745 10744 10743 10741 10740 10739 10737 10735 10733 10731 10729 10726 10724 10722 10719 10717 10715 10712 10709 10705 10702 10699 10695 10691 10687 10684 10681 10676 10673 10669 10665 10662 10659 10656 10653 10650 10649 10650 10648 10644 10636 10630 10624 10618 10615 10611 10602 10591 10581 10572 10566 10561 10554 10549 10547 10544 10536 10528 10518 10519 10529 10526 10517 10511 10502 10497 10496 10487 10477 10471 10465 10459 10452 10444 10436 10429 10422
10749 10749 10748 10748 10747 10747 10746 10745 10744 10743 10742 10741 10740 10739 10737 10736 10734 10732 10730 10728 10726 10724 10722 10719 10717 10715 10712 10710 10707 10704 10700 10697 10693 10689 10685 10681 10677 10673 10669 10665 10662 10658 10655 10652 10649 10646 10642 10640 10640 10641 10638 10630 10622 10614 10609 10605 10602 10594 10582 10570 10560 10554 10551 10546 10538 10533 10529 10525 10517 10509 10508 10514 10513 10504 10496 10489 10484 10482 10474 10464 10456 10450 10444 10437 10430 10424 10418 10411
10746 10746 10745 10745 10744 10743 10742 10741 10741 10740 10739 10737 10736 10735 10733 10732 10730 10728 10725 10723 10722 10720 10717 10715 10713 10710 10707 10705 10702 10698 10695 10691 10687 10683 10679 10675 10670 10665 10662 10658 10654 10650 10647 10644 10642 10638 10633 10629 10626 10626 10626 10622 10616 10610 10604 10600 10595 10587 10576 10562 10550 10544 10541 10536 10530 10525 10521 10516 10511 10503 10498 10499 10498 10489 10481 10475 10472 10469 10463 10452 10442 10432 10426 10422 10417 10412 10406 10400
10743 10742 10742 10741 10741 10740 10739 10738 10738 10736 10735 10734 10732 10731 10729 10727 10726 10724 10721 10719 10717 10716 10713 10710 10708 10705 10702 10699 10696 10693 10689 10685 10681 10677 10672 10668 10663 10658 10654 10650 10646 10642 10638 10635 10632 10629 10624 10618 10613 10609 10605 10601 10598 10596 10594 10591 10588 10581 10570 10554 10541 10534 10528 10522 10519 10515 10511 10508 10506 10497 10487 10485 10482 10473 10466 10463 10459 10457 10451 10440 10429 10418 10410 10406 10402 10398 10394 10388
10741 10740 10740 10739 10738 10738 10737 10736 10735 10733 10732 10730 10729 10727 10726 10723 10721 10720 10717 10715 10713 10711 10708 10705 10703 10700 10696 10693 10690 10686 10682 10678 10674 10670 10665 10660 10656 10651 10647 10643 10638 10634 10630 10626 10622 10619 10615 10609 10604 10599 10592 10583 10578 10575 10572 10570 10569 10566 10556 10541 10530 10522 10514 10509 10507 10505 10499 10496 10496 10488 10475 10470 10467 10457 10453 10453 10449 10444 10437 10427 10417 10408 10401 10396 10391 10385 10380 10374
10739 10738 10738 10737 10736 10735 10734 10732 10731 10729 10728 10726 10725 10723 10721 10719 10717 10715 10713 10710 10708 10705 10703 10700 10697 10694 10690 10687 10683 10679 10675 10671 10666 10662 10657 10653 10648 10643 10639 10634 10630 10625 10621 10617 10613 10609 10605 10600 10595 10591 10584 10573 10566 10563 10558 10553 10552 10548 10538 10526 10518 10512 10506 10502 10498 10493 10486 10481 10479 10473 10462 10457 10453 10445 10440 10440 10436 10429 10421 10411 10402 10396 10392 10390 10384 10377 10370 10364
10737 10736 10735 10734 10733 10731 10730 10729 10727 10725 10724 10722 10721 10719 10717 10715 10712 10710 10707 10705 10702 10699 10697 10694 10691 10688 10684 10681 10677 10673 10669 10665 10659 10654 10650 10645 10640 10635 10630 10625 10620 10616 10611 10607 10602 10598 10595 10590 10586 10583 10576 10565 10557 10552 10547 10541 10538 10533 10521 10508 10503 10503 10500 10496 10490 10481 10472 10465 10459 10453 10448 10445 10441 10434 10429 10426 10421 10414 10406 10395 10386 10381 10381 10380 10375 10367 10360 10356
10734 10733 10732 10731 10730 10728 10726 10725 10723 10721 10720 10718 10716 10714 10712 10710 10707 10704 10702 10699 10696 10693 10690 10687 10684 10681 10678 10674 10671 10667 10663 10659 10655 10649 10644 10638 10633 10628 10622 10617 10612 10607 10602 10597 10593 10588 10584 10579 10574 10571 10565 10554 10544 10539 10533 10527 10524 10519 10507 10495 10492 10493 10487 10481 10477 10468 10458 10452 10444 10437 10435 10434 10429 10421 10416 10412 10408 10402 10393 10381 10371 10369 10370 10368 10361 10354 10349 10346
10731 10730 10729 10727 10726 10724 10723 10721 10719 10717 10715 10713 10711 10709 10707 10705 10702 10699 10696 10693 10690 10686 10683 10680 10677 10674 10671 10667 10663 10659 10654 10650 10647 10642 10637 10632 10626 10620 10614 10609 10604 10598 10593 10588 10583 10578 10572 10568 10562 10557 10552 10542 10532 10525 10518 10512 10509 10503 10494 10486 10484 10483 10474 10465 10459 10453 10445 10439 10431 10425 10423 10423 10417 10409 10404 10400 10396 10391 10381 10368 10359 10359 10360 10355 10348 10342 10339 10336
10728 10727 10726 10724 10722 10721 10719 10716 10714 10712 10710 10708 10706 10704 10702 10699 10697 10694 10690 10687 10683 10680 10676 10673 10669 10666 10662 10658 10654 10649 10644 10640 10635 10630 10626 10621 10616 10610 10605 10600 10594 10588 10583 10577 10571 10565 10558 10553 10548 10543 10539 10531 10521 10513 10506 10500 10495 10489 10482 10478 10476 10472 10463 10454 10447 10439 10430 10422 10416 10414 10413 10410 10404 10399 10395 10392 10388 10381 10372 10359 10350 10349 10349 10343 10336 10332 10328 10323
10725 10724 10722 10720 10718 10716 10714 10711 10709 10707 10705 10703 10701 10698 10696 10693 10690 10687 10683 10680 10676 10673 10669 10666 10662 10658 10654 10650 10645 10640 10635 10630 10625 10620 10614 10609 10604 10599 10593 10588 10581 10575 10569 10563 10557 10550 10543 10537 10533 10528 10524 10520 10511 10502 10494 10486 10481 10475 10469 10467 10467 10462 10454 10447 10440 10429 10416 10406 10401 10401 10399 10393 10389 10385 10381 10379 10376 10370 10360 10349 10341 10339 10338 10333 10327 10322 10317 10312